Regional Weather Roundup
Issued by NWS Sioux Falls, SD

Home | Current Version | Previous Version | Text Only | Print | Product List | Glossary Off
Versions: 1 2 3 4 5 6 7 8 9 10 11 12 13 14 15 16 17 18 19 20 21 22 23 24 25 26 27 28 29 30 31 32 33 34 35 36 37 38 39 40 41 42 43 44 45 46 47 48 49 50

000
ASUS43 KFSD 301602
RWRFSD

WEATHER ROUNDUP FOR SE SOUTH DAKOTA/SW MINNESOTA/NW IOWA
NATIONAL WEATHER SERVICE SIOUX FALLS SD
1000 AM CST FRI JAN 30 2015

NOTE: "FAIR" INDICATES FEW OR NO CLOUDS BELOW 12,000 FEET WITH NO
SIGNIFICANT WEATHER AND OR OBSTRUCTIONS TO VISIBILITY.


SDZ038>040-050-052>070-301700-
SOUTHEAST SOUTH DAKOTA

CITY           SKY/WX    TMP DP  RH WIND       PRES   REMARKS
CHAMBERLAIN    NOT AVBL
HURON          SUNNY     25  21  85 S17       30.32F WCI  12
MADISON        FAIR      23  23 100 S17       30.37F WCI   9
MITCHELL       SUNNY     26  23  88 S16       30.37F WCI  14
SIOUX FALLS    MOSUNNY   24  19  81 S18       30.42F WCI  10
WINNER         FAIR      35  23  61 S23G30    30.24F WCI  23
YANKTON        SUNNY     25  21  86 SE8       30.45F WCI  16
$$

MNZ071-072-080-081-089-090-097-098-301700-
SOUTHWEST MINNESOTA

CITY           SKY/WX    TMP DP  RH WIND       PRES   REMARKS
FAIRMONT       SUNNY     18  10  73 S12       30.48S WCI   5
JACKSON        SUNNY     19  14  79 S9        30.46F WCI   9
LUVERNE        CLOUDY    25  21  86 S17       30.45F WCI  11
MARSHALL       CLOUDY    21  16  79 SW10      30.45S WCI  10
MONTEVIDEO     CLOUDY    18  16  93 S8        30.46S WCI   7
PIPESTONE      CLOUDY    21  19  93 SW18      30.39F WCI   6
REDWOOD FALLS  CLOUDY    17  11  77 S9        30.49S WCI   6
TRACY          CLOUDY    22  19  88 SW12      30.44S WCI  10
WINDOM         PTSUNNY   18  14  86 S12       30.44F WCI   5
WORTHINGTON    CLOUDY    18  14  86 S10       30.44F WCI   6
$$

IAZ001>003-012>014-020>022-031-032-NEZ013-014-SDZ071-301700-
NORTHWEST IOWA

CITY           SKY/WX    TMP DP  RH WIND       PRES   REMARKS
ESTHERVILLE    SUNNY     16  11  80 S10       30.48F WCI   4
SIOUX CITY     MOSUNNY   25  19  78 SE9       30.51F WCI  15
SPENCER        SUNNY     20  13  74 S10       30.49F WCI   9
$$

ABBREVIATIONS USED IN REMARKS
   TC - TEMPERATURE IN CELSIUS
  WCI - WIND CHILL INDEX
   HX - HEAT INDEX
  VSB - VISIBILITY




USA.gov is the U.S. government's official web portal to all federal, state and local government web resources and services.